This demonstration page uses our WeatherBlox Daily Observations layout. Learn more.

Left ArrowRight Arrow

38.89511, -77.03637

Hourly Observations for June 17, 2019

Temp ( °F °C ) Dew Point ( °F °C ) Humidity (%) Winds ( mph kmh ) Pressure ( in mb ) Visibility ( mi km ) Precip ( " mm )
12:52 am 00:52 Mostly Cloudy 78 25.6 69 20.6 74 74 S 6 9 29.89 1012 10 16 N/A
1:52 am 01:52 Mostly Cloudy 77 25 70 21.1 79 79 S 8 13 29.90 1013 10 16 N/A
2:52 am 02:52 Mostly Cloudy 76 24.4 70 21.1 82 82 S 6 9 29.89 1012 10 16 N/A
3:52 am 03:52 Cloudy 76 24.4 69 20.6 79 79 N 10 17 29.91 1013 10 16 N/A
4:52 am 04:52 Cloudy 76 24.4 68 20 77 77 NNE 3 6 29.91 1013 10 16 N/A
5:52 am 05:52 Partly Cloudy 76 24.4 66 18.9 72 72 NNW 6 9 29.95 1014 10 16 N/A
6:52 am 06:52 Partly Cloudy 78 25.6 66 18.9 67 67 NNW 6 9 29.97 1015 10 16 N/A
7:52 am 07:52 Partly Cloudy 78 25.6 67 19.4 69 69 NE 5 7 29.98 1015 10 16 N/A
8:52 am 08:52 Mostly Cloudy 80 26.7 66 18.9 62 62 N N/A 29.97 1015 10 16 N/A
9:52 am 09:52 Mostly Cloudy 82 27.8 67 19.4 60 60 ESE 3 6 29.98 1015 10 16 N/A
10:52 am 10:52 Mostly Cloudy 85 29.4 64 17.8 50 50 N N/A 29.98 1015 10 16 N/A
11:52 am 11:52 Mostly Cloudy 85 29.4 68 20 57 57 S 9 15 29.99 1016 10 16 N/A
12:52 pm 12:52 Mostly Cloudy 88 31.1 69 20.6 54 54 S 10 17 29.99 1016 10 16 N/A
1:52 pm 13:52 Mostly Cloudy 89 31.7 70 21.1 53 53 S 13 20 29.98 1015 10 16 N/A
2:52 pm 14:52 Mostly Cloudy 90 32.2 68 20 48 48 SW 13 20 29.97 1015 10 16 N/A
3:52 pm 15:52 Mostly Cloudy 88 31.1 69 20.6 54 54 S 12 19 29.95 1014 10 16 N/A
4:29 pm 16:29 Mostly Cloudy with Thunderstorms 88 31.1 70 21.1 55 55 S 8 13 29.95 1014 10 16 N/A
4:52 pm 16:52 Mostly Cloudy 83 28.3 69 20.6 63 63 NNE 14 22 29.93 1014 10 16 N/A
5:39 pm 17:39 Mostly Cloudy with Light Rain 80 26.7 71 21.7 74 74 NNE 12 19 29.93 1013 8 13 N/A
5:44 pm 17:44 Mostly Cloudy with Heavy Rain 78 25.6 71 21.7 79 79 N 15 24 29.93 1013 3 5 0.04 1.02
5:46 pm 17:46 Mostly Cloudy with Heavy Rain 79 26 72 22 79 79 NNE 14 22 29.93 1013 2 3 0.07 1.78
5:50 pm 17:50 Mostly Cloudy with Thunderstorms 77 25 72 22 83 83 NNE 10 17 29.93 1013 2 2 0.13 3.30
5:52 pm 17:52 Mostly Cloudy with Thunderstorms 77 25 70 21.1 79 79 NNE 7 11 29.93 1014 2 3 0.13 3.30
5:57 pm 17:57 Mostly Cloudy with Thunderstorms 78 25.6 71 21.7 79 79 E 12 19 29.94 1014 7 11 N/A
6:06 pm 18:06 Mostly Cloudy 77 25 72 22.2 85 85 S 9 15 29.95 1014 10 16 N/A
6:19 pm 18:19 Mostly Cloudy with Thunderstorms 77 25 71 21.7 82 82 SE 7 11 29.95 1014 10 16 N/A
6:32 pm 18:32 Mostly Cloudy with Thunderstorms 77 25 72 22.2 85 85 N N/A 29.99 1015 2 3 N/A
6:38 pm 18:38 Cloudy with Strong Thunderstorms 77 25 72 22.2 85 85 WNW 21 33 30.01 1016 1 1 0.11 2.79
6:49 pm 18:49 Cloudy with Strong Thunderstorms 73 23 66 19 78 78 VRB 3 6 29.97 1015 5 8 0.58 14.73
6:52 pm 18:52 Cloudy with Thunderstorms 74 23.3 68 20 82 82 N N/A 29.96 1015 7 11 0.62 15.75
6:59 pm 18:59 Cloudy with Light Rain 75 23.9 67 19.4 76 76 NE 6 9 29.97 1015 9 14 N/A
7:01 pm 19:01 Mostly Cloudy with Light Rain 75 23.9 68 20 79 79 NE 5 7 29.97 1015 9 14 N/A
7:25 pm 19:25 Mostly Cloudy with Thunderstorms 75 23.9 71 21.7 88 88 SE 3 6 29.96 1014 10 16 N/A
7:42 pm 19:42 Partly Cloudy with Nearby Thunderstorms 75 23.9 71 21.7 88 88 S 5 7 29.95 1014 10 16 N/A
7:52 pm 19:52 Mostly Cloudy 75 23.9 69 20.6 82 82 S 3 6 29.95 1014 10 16 N/A
8:17 pm 20:17 Mostly Cloudy with Light Rain 77 25 71 21.7 82 82 S 7 11 29.98 1015 2 3 N/A
8:19 pm 20:19 Mostly Cloudy with Thunderstorms 77 25 70 21.1 79 79 S 12 19 29.98 1015 2 2 0.07 1.78
8:26 pm 20:26 Mostly Cloudy with Thunderstorms 75 23.9 71 21.7 88 88 S 14 22 29.98 1015 3 5 0.11 2.79
8:29 pm 20:29 Mostly Cloudy with Thunderstorms 74 23.3 71 21.7 91 91 S 10 17 29.98 1015 9 14 0.11 2.79
8:34 pm 20:34 Cloudy with Light Rain 74 23.3 70 21.1 88 88 S 12 19 29.97 1015 10 16 0.11 2.79
8:49 pm 20:49 Cloudy with Heavy Rain 75 24 72 22 89 89 SW 3 6 29.97 1015 3 5 0.13 3.30
8:52 pm 20:52 Cloudy with Heavy Rain 74 23.3 71 21.7 91 91 N N/A 29.97 1015 3 4 0.16 4.06
8:58 pm 20:58 Mostly Cloudy with Light Rain 74 23.3 71 21.7 91 91 N N/A 29.97 1015 3 5 0.04 1.02
9:04 pm 21:04 Mostly Cloudy with Light Rain 74 23.3 71 21.7 91 91 N N/A 29.97 1015 10 16 0.04 1.02
9:52 pm 21:52 Mostly Cloudy with Light Rain 75 23.9 71 21.7 88 88 SW 3 6 29.99 1016 10 16 0.06 1.52
10:52 pm 22:52 Cloudy with Light Rain 75 23.9 72 22.2 90 90 N N/A 29.99 1016 10 16 0.02 0.51
11:52 pm 23:52 Cloudy 75 23.9 72 22.2 90 90 SE 3 6 29.99 1016 10 16 N/A

Powered by AerisWeather